GSAT0103 (PRN E19)

Last updated on Jan. 23, 2021, 7:31 a.m. UTC

1 38857U 12055A   21022.37648103  .00000028  00000-0  00000-0 0  9993
2 38857  55.0174 155.7561 0002068 241.6385 118.3009  1.70473714 51541
UTC
Height (km)
Latitude
Longitude
Inclination
Orbital Period
UTC large
Height (km)
Speed (km/s)
/
Latitude / Longitude
Inclination (degrees)
Orbital Period (minutes)
Azimuth
Elevation
Range (km)
Doppler Factor
iOS Compass Heading
iOS Angle

Next 30 passes for location: Hong Kong

Rise time Rise Azimuth (degrees) Set time Set Azimuth (degrees) Duration Max altitude (degrees)

No matching passes for this satellites